Temp
-8 -8 -8 -8 -7 -7 -7 -7 -7 -7 -7 -8 -8 -8 -8 -8 -8 -8 -8 -8 -8 -8 -8 -8 -9 -9 -9 -9 -9 -9 -9 -9 -9 -9 -9 -9 -9 -9 -9 -9 -9 -9 -9 -9 -9 -10 -10 -10 -10 -10 -10 -11 -11 -11 -10 -10 -10 -10 -10 -10 -10 -10 -9
-8 -8 -8 -7 -7 -7 -7 -7 -7 -7 -7 -8 -8 -8 -8 -8 -8 -8 -8 -8 -8 -8 -8 -9 -9 -9 -9 -9 -9 -9 -9 -9 -9 -9 -9 -9 -9 -9 -9 -9 -9 -9 -9 -9 -10 -10 -10 -10 -10 -10 -11 -11 -11 -11 -11 -11 -11 -11 -10 -10 -10 -10 -9
-8 -8 -7 -7 -7 -7 -7 -7 -7 -7 -7 -8 -8 -8 -8 -8 -8 -8 -8 -8 -8 -8 -8 -9 -9 -9 -9 -9 -9 -9 -9 -9 -9 -9 -9 -9 -9 -9 -9 -10 -10 -10 -10 -10 -10 -10 -10 -11 -11 -11 -11 -11 -11 -11 -11 -11 -11 -11 -11 -11 -10 -10 -10
-7 -7 -7 -7 -7 -7 -7 -7 -7 -7 -7 -8 -8 -8 -8 -8 -8 -8 -8 -8 -8 -8 -8 -9 -9 -9 -9 -9 -9 -9 -9 -9 -9 -9 -9 -9 -9 -9 -10 -10 -10 -10 -10 -10 -10 -11 -11 -11 -11 -11 -11 -11 -11 -11 -11 -11 -11 -11 -11 -11 -10 -10 -10
-7 -7 -7 -7 -7 -7 -7 -7 -7 -7 -8 -8 -8 -8 -8 -8 -8 -8 -8 -8 -8 -8 -9 -9 -9 -9 -9 -9 -9 -9 -9 -9 -9 -9 -9 -9 -9 -10 -10 -10 -10 -10 -11 -11 -11 -11 -11 -11 -11 -11 -11 -11 -11 -11 -11 -11 -11 -11 -11 -11 -10 -10 -10
-7 -7 -7 -7 -7 -7 -7 -7 -7 -7 -8 -8 -8 -8 -8 -8 -8 -8 -8 -8 -8 -8 -9 -9 -9 -9 -9 -9 -9 -9 -9 -10 -9 -9 -9 -10 -10 -10 -10 -10 -10 -11 -11 -11 -11 -11 -11 -11 -11 -11 -11 -11 -11 -11 -11 -11 -11 -11 -11 -11 -10 -10 -10
-7 -7 -7 -7 -7 -7 -7 -7 -7 -8 -8 -8 -8 -8 -8 -8 -8 -8 -8 -8 -8 -8 -9 -9 -9 -9 -9 -9 -9 -10 -10 -10 -10 -10 -10 -10 -10 -10 -10 -10 -10 -11 -11 -11 -11 -11 -11 -11 -11 -11 -11 -11 -12 -12 -12 -12 -12 -12 -11 -11 -11 -10 -10
-7 -7 -7 -7 -7 -7 -7 -7 -8 -8 -8 -8 -8 -8 -8 -8 -8 -8 -8 -8 -8 -9 -9 -9 -9 -9 -9 -9 -10 -10 -10 -10 -10 -10 -10 -10 -10 -11 -11 -10 -11 -11 -11 -11 -11 -11 -11 -11 -11 -11 -12 -12 -12 -12 -12 -12 -12 -12 -12 -12 -11 -11 -11
-7 -7 -7 -7 -8 -8 -8 -8 -8 -8 -8 -8 -8 -8 -8 -8 -8 -8 -8 -8 -8 -9 -9 -9 -9 -9 -9 -10 -10 -10 -10 -10 -10 -10 -10 -11 -11 -11 -11 -11 -11 -11 -11 -11 -11 -11 -11 -11 -12 -12 -12 -12 -12 -13 -12 -12 -13 -13 -13 -12 -12 -11 -11
-7 -7 -8 -8 -8 -8 -8 -8 -8 -8 -8 -8 -8 -8 -8 -8 -8 -8 -8 -8 -9 -9 -9 -9 -9 -9 -9 -10 -10 -10 -10 -10 -10 -10 -10 -11 -11 -11 -11 -11 -11 -11 -11 -11 -11 -12 -12 -12 -12 -13 -13 -13 -13 -13 -13 -13 -13 -13 -13 -13 -12 -12 -11
-7 -7 -8 -8 -8 -8 -8 -8 -8 -8 -8 -8 -8 -8 -8 -8 -8 -8 -8 -9 -9 -9 -9 -9 -9 -9 -10 -10 -10 -10 -10 -10 -10 -10 -11 -11 -11 -11 -11 -11 -12 -12 -12 -12 -12 -12 -12 -12 -13 -13 -13 -13 -13 -13 -13 -13 -13 -13 -13 -13 -12 -12 -11
-8 -8 -8 -8 -8 -8 -8 -8 -8 -8 -8 -8 -9 -9 -9 -9 -9 -9 -9 -9 -9 -9 -9 -9 -9 -9 -10 -10 -10 -10 -10 -10 -10 -11 -11 -11 -12 -12 -12 -12 -12 -12 -12 -12 -12 -12 -12 -12 -12 -13 -13 -13 -13 -13 -13 -13 -13 -13 -13 -13 -12 -12 -12
-8 -8 -8 -8 -8 -8 -8 -8 -8 -8 -8 -9 -9 -9 -9 -9 -9 -9 -9 -9 -9 -9 -9 -9 -10 -10 -10 -10 -10 -10 -10 -10 -11 -11 -11 -12 -12 -12 -12 -12 -12 -12 -12 -12 -12 -12 -12 -12 -12 -13 -13 -13 -13 -13 -13 -13 -13 -13 -13 -13 -12 -12 -12
-8 -8 -8 -8 -8 -8 -8 -8 -8 -8 -9 -9 -9 -9 -9 -9 -9 -9 -9 -9 -9 -9 -9 -10 -10 -10 -10 -10 -10 -10 -11 -11 -11 -11 -12 -12 -12 -12 -12 -12 -12 -12 -12 -12 -12 -12 -12 -12 -12 -13 -13 -13 -13 -13 -13 -13 -13 -13 -13 -13 -12 -12 -12
-8 -8 -8 -8 -8 -8 -8 -8 -8 -9 -9 -9 -9 -9 -9 -9 -9 -10 -9 -9 -9 -9 -10 -10 -10 -10 -10 -10 -10 -11 -11 -11 -11 -12 -12 -12 -12 -12 -12 -12 -12 -12 -13 -12 -12 -12 -12 -12 -13 -13 -13 -13 -13 -13 -13 -13 -13 -13 -13 -13 -12 -12 -12
-8 -8 -8 -8 -8 -8 -8 -9 -9 -9 -9 -9 -9 -9 -10 -10 -10 -10 -10 -9 -9 -10 -10 -10 -10 -10 -10 -10 -11 -11 -11 -11 -12 -12 -12 -12 -12 -12 -12 -12 -12 -12 -13 -12 -12 -12 -12 -12 -13 -13 -13 -13 -13 -13 -13 -13 -13 -13 -13 -13 -13 -12 -12
-9 -9 -9 -9 -9 -9 -9 -9 -10 -10 -10 -10 -10 -10 -10 -10 -10 -10 -10 -9 -9 -10 -10 -10 -10 -10 -10 -11 -11 -11 -11 -12 -12 -12 -12 -12 -12 -12 -12 -12 -12 -13 -13 -12 -12 -12 -12 -12 -13 -13 -13 -13 -13 -13 -13 -13 -13 -13 -13 -13 -13 -12 -12
-9 -9 -9 -9 -10 -10 -10 -10 -10 -10 -10 -10 -10 -10 -10 -10 -10 -10 -10 -10 -10 -10 -10 -10 -10 -11 -11 -11 -11 -11 -12 -12 -12 -13 -13 -13 -12 -12 -12 -12 -12 -13 -13 -13 -12 -13 -13 -13 -13 -13 -13 -13 -13 -13 -13 -13 -13 -13 -12 -13 -12 -12 -12
-9 -9 -10 -10 -10 -10 -10 -11 -11 -11 -10 -10 -10 -10 -10 -10 -10 -10 -10 -10 -10 -10 -10 -11 -11 -11 -11 -11 -11 -11 -11 -12 -12 -13 -13 -13 -13 -12 -12 -12 -12 -13 -13 -13 -13 -13 -13 -13 -13 -13 -13 -13 -13 -13 -13 -13 -13 -13 -13 -13 -12 -12 -12
-10 -10 -10 -11 -11 -11 -11 -11 -11 -11 -11 -11 -11 -11 -10 -10 -10 -10 -10 -10 -10 -10 -11 -11 -11 -11 -11 -11 -11 -11 -11 -12 -12 -13 -13 -13 -13 -13 -13 -13 -13 -13 -13 -13 -13 -13 -13 -13 -13 -13 -13 -13 -13 -13 -13 -13 -13 -13 -13 -13 -12 -12 -12
-10 -11 -11 -11 -11 -11 -11 -12 -12 -12 -12 -11 -11 -11 -10 -10 -10 -10 -10 -10 -10 -11 -11 -11 -11 -11 -11 -11 -11 -11 -12 -12 -12 -13 -13 -13 -13 -13 -13 -13 -13 -13 -14 -14 -14 -13 -13 -13 -13 -13 -13 -14 -14 -14 -13 -13 -13 -13 -13 -13 -12 -12 -12
-10 -11 -11 -11 -11 -11 -12 -12 -12 -12 -12 -11 -11 -11 -11 -11 -10 -10 -10 -10 -10 -11 -11 -11 -11 -11 -11 -11 -12 -12 -12 -12 -12 -13 -13 -13 -13 -13 -13 -13 -13 -14 -14 -14 -14 -14 -14 -14 -14 -13 -13 -14 -14 -14 -14 -14 -14 -13 -13 -13 -13 -12 -12
-11 -11 -11 -11 -11 -11 -12 -12 -12 -12 -11 -11 -11 -11 -11 -11 -10 -10 -10 -10 -11 -11 -11 -11 -12 -12 -12 -12 -12 -12 -13 -13 -13 -13 -13 -13 -13 -13 -13 -13 -14 -14 -14 -14 -14 -14 -14 -14 -14 -14 -13 -14 -14 -15 -14 -14 -14 -14 -13 -13 -13 -12 -12
-11 -11 -11 -11 -11 -12 -12 -12 -11 -11 -11 -11 -11 -11 -11 -11 -10 -10 -10 -10 -11 -11 -11 -12 -12 -12 -12 -12 -13 -13 -13 -13 -13 -13 -13 -13 -13 -13 -13 -13 -14 -14 -14 -14 -14 -14 -14 -14 -14 -14 -14 -14 -14 -15 -15 -15 -15 -14 -13 -13 -13 -12 -12
-11 -11 -11 -12 -12 -12 -11 -11 -11 -11 -11 -11 -11 -11 -11 -10 -10 -10 -10 -11 -11 -11 -12 -12 -12 -12 -13 -13 -13 -13 -13 -13 -13 -13 -14 -13 -14 -14 -13 -14 -14 -14 -15 -15 -14 -14 -14 -14 -14 -14 -14 -14 -14 -15 -15 -15 -15 -14 -14 -13 -13 -13 -12
-11 -12 -12 -12 -11 -11 -11 -11 -11 -11 -11 -11 -11 -11 -10 -10 -10 -10 -11 -11 -11 -12 -12 -12 -13 -13 -13 -13 -13 -13 -14 -14 -14 -14 -14 -14 -14 -14 -14 -14 -14 -15 -15 -15 -15 -15 -14 -14 -14 -14 -14 -14 -15 -15 -15 -15 -15 -15 -14 -13 -13 -13 -13
-12 -12 -11 -11 -11 -11 -11 -11 -11 -11 -11 -11 -11 -11 -11 -11 -11 -11 -11 -11 -12 -12 -12 -12 -13 -13 -13 -13 -14 -14 -14 -14 -14 -14 -14 -14 -14 -14 -14 -14 -14 -15 -15 -15 -15 -15 -14 -14 -14 -15 -14 -15 -15 -15 -15 -16 -16 -15 -14 -14 -13 -13 -13
-11 -11 -11 -11 -11 -11 -11 -11 -11 -11 -11 -11 -11 -11 -11 -11 -11 -12 -12 -12 -12 -12 -12 -13 -13 -13 -14 -14 -14 -14 -14 -14 -14 -14 -14 -14 -15 -14 -14 -14 -15 -15 -15 -15 -15 -15 -15 -14 -14 -15 -15 -15 -15 -15 -16 -16 -16 -16 -15 -14 -14 -13 -13
-11 -11 -11 -11 -11 -11 -11 -11 -11 -12 -12 -12 -12 -11 -11 -12 -12 -12 -12 -12 -12 -12 -13 -13 -13 -13 -14 -14 -14 -15 -15 -14 -14 -15 -15 -15 -15 -15 -14 -15 -15 -15 -15 -15 -15 -15 -15 -15 -14 -15 -15 -15 -15 -15 -16 -16 -16 -16 -15 -15 -14 -14 -13
-11 -11 -11 -11 -11 -11 -11 -12 -12 -12 -12 -12 -12 -12 -12 -12 -12 -12 -12 -13 -13 -13 -13 -13 -14 -14 -14 -15 -15 -15 -15 -15 -15 -15 -15 -15 -15 -15 -15 -15 -15 -15 -15 -15 -15 -15 -15 -15 -15 -15 -15 -15 -15 -15 -15 -16 -16 -16 -16 -15 -15 -14 -14
-12 -12 -12 -12 -12 -12 -12 -12 -12 -12 -12 -12 -12 -12 -12 -12 -12 -12 -13 -13 -13 -13 -13 -14 -14 -14 -14 -15 -15 -15 -15 -15 -15 -15 -15 -15 -15 -15 -15 -15 -15 -15 -15 -15 -15 -15 -15 -15 -15 -15 -15 -15 -15 -15 -15 -15 -16 -16 -16 -15 -15 -15 -14
-12 -12 -12 -12 -12 -12 -12 -12 -12 -12 -12 -12 -12 -12 -12 -12 -13 -13 -13 -13 -13 -14 -14 -14 -14 -14 -15 -15 -15 -15 -15 -15 -15 -15 -15 -15 -15 -15 -15 -15 -15 -15 -15 -15 -15 -15 -15 -15 -15 -15 -15 -15 -15 -15 -15 -15 -15 -15 -15 -15 -15 -15 -15
-12 -12 -12 -12 -12 -12 -12 -12 -12 -12 -12 -12 -12 -12 -12 -13 -13 -13 -13 -13 -14 -14 -14 -14 -14 -14 -15 -15 -15 -15 -15 -15 -15 -15 -15 -15 -15 -15 -15 -15 -15 -15 -15 -15 -15 -15 -15 -15 -15 -15 -15 -15 -15 -15 -15 -15 -15 -15 -15 -15 -15 -15 -15
-12 -12 -12 -12 -12 -12 -12 -12 -12 -12 -12 -13 -13 -13 -13 -13 -13 -13 -13 -14 -14 -14 -14 -14 -14 -15 -15 -15 -15 -15 -15 -15 -15 -15 -15 -15 -15 -15 -15 -15 -15 -15 -15 -15 -15 -15 -15 -15 -15 -15 -15 -15 -15 -15 -15 -15 -15 -15 -15 -15 -15 -15 -15
-12 -12 -12 -12 -13 -13 -13 -13 -13 -13 -13 -13 -13 -13 -13 -13 -14 -14 -14 -14 -14 -14 -14 -14 -15 -15 -15 -15 -15 -15 -15 -15 -15 -15 -15 -15 -15 -15 -15 -15 -15 -15 -15 -15 -15 -15 -15 -15 -15 -15 -15 -15 -15 -15 -15 -15 -15 -15 -15 -15 -15 -15 -15
-12 -12 -12 -13 -13 -13 -13 -13 -13 -13 -13 -13 -13 -13 -13 -14 -14 -14 -14 -14 -14 -14 -14 -14 -15 -15 -15 -15 -15 -16 -16 -16 -15 -15 -15 -15 -15 -15 -15 -15 -15 -15 -15 -15 -15 -15 -15 -15 -15 -15 -15 -15 -15 -15 -15 -15 -15 -15 -15 -15 -15 -15 -15
-12 -12 -13 -13 -13 -13 -13 -13 -13 -13 -13 -13 -13 -13 -13 -14 -14 -14 -14 -14 -14 -15 -15 -15 -15 -15 -15 -15 -16 -16 -16 -16 -16 -16 -16 -15 -15 -15 -15 -15 -15 -15 -15 -15 -15 -15 -15 -15 -15 -15 -15 -15 -15 -15 -15 -15 -15 -15 -15 -15 -15 -15 -15
-13 -13 -13 -13 -13 -13 -13 -13 -13 -13 -13 -13 -13 -13 -14 -14 -14 -14 -14 -14 -15 -15 -15 -15 -15 -15 -15 -15 -16 -16 -16 -16 -16 -16 -16 -15 -15 -15 -15 -15 -15 -15 -15 -15 -15 -15 -15 -15 -15 -15 -15 -15 -15 -15 -15 -15 -15 -15 -15 -15 -15 -15 -15
Height
5906 5904 5903 5902 5901 5900 5898 5897 5896 5895 5894 5893 5892 5891 5889 5888 5886 5884 5882 5879 5877 5875 5872 5870 5867 5865 5862 5860 5857 5855 5853 5851 5848 5846 5843 5840 5838 5835 5832 5830 5827 5825 5822 5820 5817 5815 5812 5809 5806 5804 5803 5801 5801 5802 5802 5801 5801 5801 5801 5801 5801 5801 5800
5904 5903 5902 5900 5899 5898 5896 5895 5894 5892 5891 5890 5889 5888 5886 5884 5882 5880 5878 5876 5874 5871 5869 5866 5864 5861 5859 5856 5853 5851 5849 5847 5844 5842 5840 5837 5834 5831 5828 5825 5822 5819 5817 5814 5811 5809 5806 5804 5801 5799 5798 5797 5796 5796 5797 5797 5796 5796 5796 5796 5796 5796 5796
5902 5901 5900 5898 5897 5895 5894 5893 5891 5890 5889 5888 5886 5885 5883 5880 5878 5876 5874 5872 5870 5867 5865 5862 5860 5858 5855 5853 5850 5847 5845 5843 5841 5838 5836 5833 5830 5826 5823 5820 5817 5814 5811 5808 5806 5803 5801 5798 5796 5794 5792 5791 5790 5790 5791 5791 5791 5791 5791 5791 5791 5791 5791
5899 5898 5897 5896 5895 5893 5892 5890 5889 5887 5886 5885 5884 5881 5879 5876 5874 5872 5870 5868 5866 5863 5861 5859 5856 5854 5852 5849 5846 5844 5842 5839 5837 5834 5831 5829 5825 5822 5818 5815 5812 5809 5806 5803 5800 5797 5795 5793 5791 5789 5787 5785 5784 5783 5784 5784 5785 5785 5785 5785 5785 5785 5786
5896 5895 5894 5893 5892 5890 5889 5887 5885 5884 5883 5882 5880 5878 5875 5873 5871 5869 5867 5865 5862 5860 5857 5855 5852 5850 5847 5845 5843 5840 5838 5835 5833 5830 5827 5824 5821 5817 5814 5810 5807 5804 5801 5798 5795 5792 5789 5787 5785 5783 5781 5779 5778 5776 5776 5776 5777 5777 5778 5778 5779 5779 5779
5893 5892 5891 5890 5889 5887 5885 5884 5882 5880 5879 5878 5877 5874 5872 5869 5867 5865 5863 5861 5859 5856 5853 5851 5848 5846 5843 5841 5839 5836 5834 5831 5828 5825 5822 5819 5816 5812 5809 5806 5803 5800 5797 5794 5791 5788 5784 5781 5779 5777 5775 5773 5772 5770 5769 5768 5768 5768 5769 5770 5770 5771 5771
5890 5889 5888 5887 5886 5884 5882 5880 5878 5877 5876 5875 5873 5870 5868 5866 5864 5862 5860 5857 5855 5852 5849 5847 5844 5842 5839 5837 5834 5832 5829 5826 5823 5819 5816 5813 5810 5807 5804 5802 5799 5796 5793 5790 5787 5783 5780 5776 5773 5771 5769 5767 5766 5764 5763 5761 5760 5760 5760 5760 5761 5762 5763
5887 5886 5885 5883 5882 5880 5879 5877 5875 5873 5872 5871 5868 5866 5864 5862 5860 5858 5856 5853 5850 5848 5845 5842 5840 5838 5836 5833 5830 5827 5824 5820 5818 5814 5811 5808 5805 5802 5800 5797 5794 5792 5789 5785 5782 5778 5775 5771 5768 5765 5763 5761 5760 5758 5756 5754 5753 5752 5752 5751 5752 5753 5754
5884 5882 5881 5880 5879 5877 5875 5873 5871 5870 5868 5867 5864 5862 5860 5858 5856 5854 5852 5849 5847 5844 5842 5839 5837 5834 5832 5829 5825 5822 5819 5816 5813 5810 5807 5804 5801 5798 5795 5793 5790 5788 5785 5781 5777 5774 5770 5766 5763 5760 5757 5755 5754 5752 5750 5748 5746 5744 5744 5744 5743 5744 5746
5880 5879 5878 5877 5875 5873 5871 5870 5868 5866 5865 5863 5860 5858 5856 5854 5853 5850 5848 5846 5843 5841 5839 5836 5834 5831 5828 5825 5821 5818 5816 5813 5810 5806 5803 5800 5797 5794 5791 5789 5786 5784 5781 5777 5773 5769 5765 5762 5759 5756 5753 5751 5748 5746 5744 5742 5740 5738 5737 5737 5737 5737 5739
5877 5876 5875 5873 5872 5870 5868 5866 5864 5863 5861 5859 5856 5854 5852 5850 5849 5846 5844 5842 5840 5838 5836 5833 5831 5827 5824 5821 5818 5815 5812 5809 5806 5803 5799 5796 5793 5790 5787 5785 5782 5779 5776 5773 5768 5764 5761 5758 5755 5752 5749 5746 5743 5740 5738 5736 5734 5732 5730 5730 5730 5731 5733
5873 5872 5871 5869 5867 5865 5863 5862 5860 5859 5857 5855 5852 5850 5848 5847 5845 5842 5840 5838 5836 5834 5832 5830 5827 5823 5820 5817 5814 5812 5809 5806 5803 5799 5796 5792 5789 5787 5784 5781 5778 5775 5772 5769 5765 5760 5757 5754 5751 5748 5745 5741 5738 5736 5733 5730 5728 5726 5724 5723 5724 5725 5727
5869 5868 5866 5865 5863 5861 5859 5858 5857 5855 5853 5851 5848 5846 5844 5843 5841 5838 5836 5834 5832 5830 5827 5825 5822 5819 5816 5813 5810 5808 5805 5801 5798 5795 5792 5789 5786 5783 5780 5777 5774 5771 5768 5765 5761 5757 5753 5750 5748 5745 5741 5737 5734 5732 5729 5725 5724 5723 5721 5720 5720 5721 5723
5865 5863 5862 5860 5859 5857 5856 5854 5853 5851 5849 5846 5844 5842 5840 5839 5837 5834 5832 5830 5828 5825 5823 5821 5818 5815 5812 5809 5806 5803 5800 5797 5794 5791 5788 5785 5782 5779 5776 5773 5771 5768 5764 5761 5758 5753 5749 5746 5744 5742 5738 5734 5731 5728 5725 5722 5721 5720 5718 5717 5716 5717 5719
5861 5859 5858 5857 5855 5854 5852 5851 5850 5848 5845 5843 5840 5838 5836 5835 5833 5830 5828 5826 5824 5821 5819 5817 5814 5811 5808 5805 5801 5798 5795 5793 5790 5787 5784 5781 5778 5776 5773 5770 5767 5764 5760 5757 5754 5750 5746 5742 5740 5738 5734 5730 5727 5725 5722 5720 5719 5718 5716 5714 5713 5713 5715
5857 5855 5854 5853 5851 5850 5848 5847 5846 5844 5841 5839 5837 5834 5832 5830 5829 5827 5824 5822 5820 5818 5816 5813 5810 5807 5804 5801 5798 5794 5791 5789 5786 5783 5780 5777 5774 5771 5769 5766 5763 5759 5756 5754 5751 5747 5743 5739 5737 5734 5731 5728 5725 5722 5720 5719 5718 5715 5712 5711 5710 5710 5711
5852 5851 5849 5848 5847 5845 5844 5843 5841 5839 5837 5835 5832 5830 5828 5826 5824 5822 5820 5818 5816 5814 5812 5809 5807 5804 5801 5798 5794 5791 5788 5785 5782 5779 5776 5773 5770 5767 5764 5762 5759 5756 5753 5750 5747 5744 5740 5737 5734 5731 5728 5726 5724 5722 5720 5718 5717 5712 5709 5708 5708 5707 5708
5847 5846 5844 5843 5842 5841 5839 5838 5837 5835 5832 5830 5828 5826 5824 5822 5820 5818 5816 5814 5812 5810 5807 5805 5802 5800 5797 5795 5791 5788 5784 5781 5778 5775 5772 5769 5766 5763 5760 5758 5755 5752 5749 5746 5744 5741 5737 5734 5731 5729 5726 5724 5722 5721 5718 5716 5714 5710 5706 5706 5706 5705 5705
5842 5841 5840 5839 5838 5836 5835 5834 5832 5830 5828 5826 5824 5822 5820 5818 5816 5813 5811 5809 5807 5805 5803 5800 5798 5795 5793 5790 5787 5784 5781 5777 5774 5771 5768 5766 5763 5760 5757 5754 5751 5749 5746 5743 5740 5738 5735 5731 5728 5726 5724 5721 5720 5719 5716 5713 5711 5708 5705 5704 5703 5702 5702
5838 5836 5835 5835 5834 5832 5831 5829 5827 5825 5823 5821 5820 5818 5816 5814 5811 5809 5807 5805 5802 5800 5797 5795 5793 5790 5788 5785 5782 5779 5777 5773 5770 5767 5764 5762 5759 5756 5753 5750 5748 5745 5742 5740 5737 5734 5732 5729 5725 5723 5721 5718 5716 5715 5713 5710 5707 5705 5702 5701 5700 5699 5699
5834 5833 5832 5831 5829 5828 5826 5825 5823 5820 5818 5817 5815 5814 5812 5809 5807 5804 5802 5800 5797 5794 5792 5789 5787 5784 5782 5779 5777 5774 5772 5769 5766 5763 5761 5758 5755 5753 5750 5747 5744 5741 5738 5736 5733 5731 5729 5726 5723 5720 5718 5716 5713 5711 5709 5707 5704 5702 5700 5698 5697 5696 5696
5831 5830 5828 5827 5826 5824 5822 5820 5818 5816 5814 5812 5811 5809 5807 5804 5802 5799 5797 5795 5792 5789 5786 5784 5781 5778 5776 5774 5771 5769 5767 5765 5762 5760 5757 5754 5752 5749 5746 5743 5740 5737 5735 5732 5730 5728 5726 5723 5721 5719 5716 5714 5711 5708 5706 5704 5701 5699 5697 5696 5694 5693 5693
5827 5826 5824 5823 5821 5820 5817 5815 5813 5811 5809 5808 5806 5805 5802 5799 5796 5794 5792 5790 5787 5784 5781 5779 5776 5773 5771 5768 5766 5764 5762 5760 5758 5756 5753 5751 5749 5746 5743 5740 5737 5734 5731 5728 5726 5725 5723 5720 5718 5716 5714 5712 5709 5706 5703 5701 5699 5697 5695 5694 5692 5691 5690
5823 5822 5820 5818 5816 5815 5813 5811 5809 5807 5805 5803 5801 5799 5797 5794 5792 5789 5787 5784 5782 5779 5777 5774 5771 5769 5766 5764 5761 5759 5757 5755 5753 5751 5749 5747 5745 5742 5739 5736 5733 5730 5727 5725 5723 5722 5720 5718 5715 5714 5712 5710 5708 5705 5702 5700 5697 5695 5694 5692 5690 5689 5687
5818 5817 5815 5813 5812 5810 5808 5806 5805 5803 5800 5798 5796 5794 5792 5789 5787 5784 5782 5779 5777 5774 5771 5769 5767 5764 5762 5759 5757 5755 5752 5750 5748 5747 5745 5743 5741 5738 5735 5732 5729 5727 5724 5722 5720 5719 5718 5715 5713 5712 5710 5708 5706 5704 5701 5698 5696 5694 5692 5690 5689 5687 5685
5814 5812 5811 5810 5808 5806 5804 5802 5800 5798 5796 5794 5791 5789 5786 5784 5781 5779 5776 5774 5772 5769 5767 5764 5762 5760 5757 5755 5753 5750 5748 5746 5744 5742 5740 5739 5737 5734 5731 5728 5726 5724 5721 5719 5717 5716 5715 5713 5711 5710 5708 5706 5704 5702 5700 5697 5695 5693 5691 5689 5687 5686 5684
5810 5809 5808 5806 5804 5802 5800 5798 5796 5794 5791 5788 5786 5783 5781 5778 5776 5773 5771 5769 5766 5764 5761 5759 5757 5755 5752 5750 5748 5746 5743 5741 5739 5738 5736 5734 5732 5730 5727 5724 5722 5720 5718 5716 5714 5713 5712 5710 5708 5707 5706 5704 5703 5701 5699 5697 5694 5692 5690 5688 5686 5685 5683
5806 5805 5803 5801 5799 5797 5795 5793 5791 5788 5786 5783 5781 5778 5776 5773 5770 5768 5765 5763 5761 5758 5756 5754 5752 5750 5747 5744 5742 5741 5738 5736 5734 5733 5731 5729 5727 5725 5723 5720 5718 5716 5715 5713 5711 5710 5709 5707 5706 5705 5704 5702 5701 5699 5698 5696 5694 5691 5689 5687 5685 5684 5683
5801 5799 5798 5796 5794 5792 5790 5788 5785 5783 5780 5778 5775 5773 5771 5768 5765 5762 5760 5757 5755 5752 5750 5748 5746 5744 5742 5739 5737 5735 5733 5731 5729 5727 5725 5724 5722 5721 5718 5716 5714 5713 5711 5710 5708 5707 5706 5705 5703 5702 5701 5700 5699 5698 5696 5695 5693 5691 5688 5686 5684 5682 5682
5796 5794 5792 5790 5788 5786 5785 5783 5780 5778 5775 5772 5770 5768 5766 5763 5760 5757 5755 5752 5749 5747 5744 5742 5740 5738 5736 5734 5731 5730 5728 5726 5724 5722 5720 5719 5718 5716 5713 5711 5710 5709 5708 5707 5705 5704 5703 5702 5700 5699 5698 5698 5697 5696 5694 5693 5692 5690 5688 5685 5683 5681 5681
5790 5788 5786 5785 5783 5781 5780 5778 5775 5772 5769 5766 5764 5763 5760 5758 5755 5752 5749 5747 5744 5741 5739 5736 5734 5732 5731 5728 5726 5724 5722 5720 5718 5717 5715 5714 5713 5711 5709 5707 5706 5706 5705 5704 5703 5702 5701 5700 5698 5697 5696 5695 5694 5693 5692 5691 5690 5688 5687 5684 5682 5680 5679
5784 5782 5781 5779 5778 5776 5774 5772 5769 5767 5764 5761 5759 5757 5755 5753 5750 5747 5744 5741 5738 5735 5733 5731 5729 5727 5725 5723 5720 5718 5717 5715 5713 5712 5710 5709 5708 5707 5705 5704 5703 5702 5702 5701 5700 5699 5698 5697 5695 5694 5693 5692 5691 5690 5689 5688 5687 5686 5685 5683 5681 5679 5677
5779 5777 5776 5774 5773 5770 5768 5766 5764 5762 5760 5757 5754 5752 5750 5748 5745 5742 5739 5736 5733 5730 5728 5726 5724 5722 5720 5717 5715 5713 5711 5710 5708 5707 5705 5704 5704 5703 5702 5700 5700 5699 5699 5698 5697 5696 5695 5694 5693 5692 5691 5690 5689 5687 5687 5686 5685 5684 5683 5682 5680 5678 5676
5774 5772 5771 5769 5767 5765 5763 5761 5759 5757 5755 5752 5749 5747 5745 5742 5739 5736 5733 5731 5728 5726 5724 5721 5719 5717 5714 5712 5710 5708 5706 5704 5703 5701 5701 5700 5700 5699 5698 5697 5696 5696 5696 5696 5695 5694 5693 5692 5690 5689 5688 5688 5687 5685 5684 5683 5683 5682 5681 5680 5678 5677 5675
5768 5767 5765 5764 5762 5760 5758 5756 5754 5752 5750 5747 5744 5741 5739 5736 5733 5730 5728 5725 5723 5721 5719 5716 5714 5711 5709 5707 5704 5702 5700 5699 5698 5696 5696 5695 5695 5695 5694 5693 5693 5693 5693 5693 5692 5691 5690 5689 5688 5687 5686 5685 5685 5684 5682 5681 5681 5680 5679 5678 5677 5675 5674
5763 5761 5760 5758 5756 5754 5752 5751 5749 5747 5744 5741 5738 5735 5733 5730 5727 5724 5722 5720 5718 5716 5713 5711 5709 5706 5704 5701 5699 5697 5695 5694 5693 5691 5691 5691 5691 5691 5690 5690 5690 5690 5690 5690 5690 5689 5687 5686 5686 5685 5684 5683 5683 5682 5681 5680 5679 5678 5677 5676 5675 5674 5673
5757 5755 5754 5752 5750 5748 5746 5744 5742 5740 5737 5735 5732 5730 5727 5725 5722 5720 5717 5715 5713 5711 5708 5705 5703 5701 5698 5696 5694 5692 5691 5689 5688 5687 5687 5687 5687 5687 5687 5687 5687 5687 5687 5687 5687 5686 5685 5684 5684 5683 5682 5681 5681 5680 5679 5678 5678 5677 5676 5675 5674 5673 5672
5751 5750 5748 5747 5745 5743 5740 5738 5736 5734 5732 5729 5727 5725 5722 5720 5717 5715 5713 5710 5708 5705 5703 5700 5698 5695 5693 5690 5689 5687 5686 5685 5684 5683 5684 5684 5684 5684 5685 5685 5685 5685 5684 5684 5684 5684 5683 5682 5681 5681 5680 5679 5678 5677 5677 5676 5676 5675 5674 5673 5672 5671 5671
Wind_Speed
19 21 21 22 24 26 28 29 29 29 28 28 29 29 29 30 29 28 29 30 31 31 31 31 31 32 32 32 32 32 33 34 35 36 37 38 39 40 41 43 44 45 47 48 49 48 47 46 45 44 43 42 40 37 36 36 36 36 36 36 38 40 42
21 22 22 23 24 27 29 30 30 30 30 30 30 30 30 31 30 29 30 31 31 31 31 31 32 32 32 33 33 34 34 35 36 36 37 38 40 41 42 43 44 46 47 49 49 48 46 44 44 44 43 42 40 37 35 34 35 36 37 37 38 40 41
22 22 23 23 25 27 29 31 31 31 31 31 31 31 31 31 30 30 31 32 32 32 32 32 32 32 33 33 34 35 36 36 37 37 38 39 40 42 44 44 44 46 47 47 47 45 44 43 43 43 42 42 40 38 36 34 34 35 36 38 39 40 42
23 23 23 24 26 28 30 31 32 32 32 32 31 31 32 32 31 31 33 33 33 32 32 33 33 33 34 34 35 36 37 37 37 37 38 39 41 42 44 44 44 45 46 45 44 43 42 42 42 42 42 41 41 40 38 35 34 35 36 38 40 41 42
24 24 24 25 27 29 30 32 32 33 33 32 31 32 32 32 32 32 34 34 33 33 33 33 34 34 35 36 37 38 38 38 38 38 39 40 42 43 43 42 43 43 43 42 42 42 42 42 41 41 41 41 41 41 41 39 37 37 37 38 40 42 43
25 24 25 26 28 29 31 32 33 34 34 32 32 33 33 33 32 33 34 34 33 33 34 34 35 35 36 37 39 40 40 40 40 40 42 43 44 44 42 42 42 42 41 40 41 41 41 41 40 40 40 41 41 42 42 42 41 40 39 39 40 42 43
25 25 26 27 29 30 31 33 34 35 34 33 33 33 34 33 32 33 34 34 34 34 35 35 36 37 38 39 40 41 41 41 42 43 45 46 45 44 42 41 41 41 39 39 39 39 39 39 40 40 40 41 41 42 43 43 43 42 41 40 40 42 43
25 26 27 28 29 31 32 34 35 35 34 33 34 34 34 33 33 34 35 35 35 35 36 36 37 38 39 41 42 43 43 43 44 46 47 48 46 44 41 40 40 39 38 39 39 38 38 38 38 39 40 41 41 41 42 43 43 42 40 40 40 41 42
26 27 28 29 30 31 33 34 35 35 34 34 34 34 34 33 34 36 36 35 36 36 36 37 38 39 40 42 43 44 44 44 46 48 49 48 46 43 40 39 38 37 37 38 39 38 38 37 37 37 39 40 40 40 40 40 41 40 39 38 38 39 40
27 28 29 30 31 32 34 35 35 35 34 34 34 34 34 33 35 37 37 36 37 37 37 38 39 41 41 43 44 44 45 45 47 49 49 47 44 41 39 37 35 35 36 38 39 38 38 37 36 37 37 38 38 38 37 37 36 36 35 34 34 35 36
28 29 30 30 32 33 34 35 36 35 34 33 34 34 34 34 36 38 38 38 38 38 38 39 40 42 43 44 45 45 45 46 48 48 47 45 42 39 37 34 33 34 37 39 39 39 38 36 36 37 37 38 38 37 35 34 32 31 31 30 30 31 32
29 30 30 31 33 34 36 36 36 35 34 34 35 35 34 35 37 39 39 39 39 39 39 40 41 43 44 45 46 45 46 47 48 48 46 43 40 37 35 32 32 35 38 39 40 40 38 37 37 37 36 36 37 36 34 32 29 28 28 29 29 29 30
29 30 31 33 34 36 37 37 36 34 34 35 36 36 36 37 39 40 40 40 41 40 40 41 42 44 45 46 46 46 47 48 49 47 44 41 38 36 34 33 33 37 40 40 40 40 40 39 38 37 35 33 34 35 33 29 28 27 27 28 28 27 28
29 31 32 34 35 37 37 36 35 34 35 37 38 37 37 38 40 42 42 42 42 41 41 42 43 45 46 47 47 48 49 49 48 46 43 40 37 35 35 36 37 40 41 40 39 41 41 40 38 36 34 33 33 33 30 28 28 26 24 25 25 24 25
30 32 34 35 36 37 37 35 33 33 36 37 38 38 38 39 42 44 43 43 42 42 42 43 44 46 47 48 49 50 50 49 47 44 42 39 37 35 36 37 39 41 40 38 38 40 41 41 38 35 34 33 32 31 28 27 27 25 23 23 23 23 24
31 33 35 35 36 36 35 33 33 34 36 38 38 38 39 42 44 45 44 43 43 42 42 43 45 46 47 48 49 50 50 48 46 43 41 38 37 36 37 38 39 39 38 36 37 39 40 41 39 35 34 32 30 29 28 26 25 25 22 21 21 23 25
33 35 35 35 35 34 33 34 34 36 37 38 38 38 41 44 46 45 44 43 43 43 43 44 45 47 47 48 49 49 49 47 44 41 39 37 37 37 37 38 38 37 36 35 37 39 40 40 38 35 33 31 28 27 26 23 23 24 21 20 20 22 25
34 35 35 35 33 32 34 35 36 37 38 38 39 40 43 45 46 45 44 44 43 43 44 45 46 47 48 48 48 48 48 46 43 40 37 36 36 36 37 37 37 35 35 36 37 39 39 39 38 35 32 30 27 25 24 21 21 24 21 20 20 21 23
34 34 35 34 32 33 35 36 35 37 38 39 41 42 44 45 46 46 45 44 44 44 45 46 47 48 49 48 47 47 47 46 43 40 38 36 36 36 37 37 36 36 36 37 38 38 38 38 38 35 32 30 28 26 24 22 22 23 22 20 21 21 20
33 34 34 33 33 34 34 34 35 38 40 41 43 44 44 45 46 46 45 45 45 45 46 47 48 49 48 48 47 47 46 46 44 41 39 37 36 37 37 37 37 37 37 38 38 38 36 36 36 35 32 30 30 27 24 23 24 23 22 21 21 20 19
33 33 33 33 34 34 33 34 37 40 42 44 44 44 45 47 47 47 46 46 46 47 47 48 49 49 48 48 48 47 46 45 44 42 40 38 37 37 38 38 37 37 38 38 38 37 35 34 34 34 31 30 30 29 26 25 25 24 22 23 23 20 19
33 32 32 33 33 33 34 36 39 41 44 45 45 45 47 48 49 48 47 47 47 48 48 49 49 49 48 48 48 47 45 44 43 42 40 38 37 38 39 39 38 38 38 37 36 35 34 33 33 33 30 29 29 30 28 25 25 24 23 24 25 23 20
32 31 31 32 32 33 36 39 41 43 45 46 46 47 48 49 49 48 48 48 48 49 49 49 49 49 48 48 48 46 45 43 43 42 41 39 38 39 40 40 39 37 36 35 34 33 32 32 32 32 29 27 27 29 29 27 26 26 24 24 26 25 22
30 31 32 33 34 36 39 41 43 45 46 47 47 48 48 48 48 48 48 49 50 51 51 51 50 49 48 48 47 46 44 43 43 43 42 41 40 39 40 40 38 36 34 33 31 30 29 30 31 30 29 26 25 26 28 28 28 28 26 24 24 25 24
30 31 33 35 37 39 41 43 45 46 47 48 48 48 48 48 48 48 49 50 51 52 52 52 50 49 47 47 46 45 44 44 44 44 44 43 42 41 40 40 37 34 32 31 29 28 27 28 29 28 28 26 24 24 26 27 29 29 27 24 22 23 24
30 32 34 36 39 41 43 45 46 47 48 48 48 49 49 49 49 50 51 52 52 53 53 51 49 48 47 47 46 45 45 45 44 45 46 46 45 42 41 39 36 33 31 29 28 27 26 26 27 26 26 25 24 24 25 26 28 29 28 25 22 21 22
31 33 35 38 40 42 44 45 46 47 48 49 49 49 49 50 51 52 53 53 53 53 52 51 50 48 48 48 47 46 45 45 46 47 48 49 47 43 41 39 36 32 30 28 27 26 25 25 26 25 24 24 23 23 23 24 26 28 28 27 25 22 20
33 35 37 40 42 44 45 46 47 48 49 50 50 50 50 51 52 53 54 54 53 53 52 52 51 49 48 47 46 44 44 45 47 49 50 50 47 42 39 38 35 32 29 27 26 25 24 24 25 24 23 22 22 22 22 22 23 26 27 27 26 23 19
36 38 40 42 44 46 47 47 48 49 50 50 50 50 51 52 53 54 54 54 54 53 53 52 51 48 46 45 44 44 46 47 49 49 48 48 45 40 37 36 34 31 29 26 25 24 23 23 24 24 22 22 21 21 21 21 21 23 25 26 26 23 19
39 41 43 45 46 47 47 48 49 49 49 49 50 50 51 52 53 54 54 54 54 53 52 51 50 48 46 46 46 47 48 49 48 46 45 45 42 38 35 34 32 29 27 25 24 23 21 22 23 24 23 22 21 21 21 21 21 21 23 24 24 23 18
41 43 45 46 47 46 46 47 47 48 48 49 50 51 52 53 53 54 54 54 53 52 51 50 49 48 47 47 48 48 48 47 45 44 44 43 39 33 31 31 29 27 26 24 23 22 21 20 21 22 22 21 21 21 21 21 21 20 20 22 23 22 19
43 44 45 45 45 45 45 46 46 47 48 49 51 52 53 53 52 52 52 51 50 50 49 49 48 48 47 47 47 47 46 44 43 41 41 39 34 30 29 28 27 26 24 24 24 22 21 20 20 21 20 20 21 21 21 21 21 20 19 20 20 21 20
43 44 44 44 44 44 45 46 46 46 48 50 51 52 52 51 51 50 49 49 49 49 48 48 48 47 46 46 45 45 43 41 40 39 38 35 30 28 28 28 26 24 23 23 24 23 21 21 21 20 20 19 19 20 20 21 21 21 20 19 19 19 19
43 43 43 43 44 45 46 46 46 47 48 50 50 50 50 50 49 49 48 48 48 48 47 47 47 46 45 44 43 42 40 38 37 37 35 31 27 26 27 27 26 24 23 22 23 23 22 21 21 21 20 18 18 19 20 20 20 21 20 20 19 18 18
43 43 43 43 45 46 46 46 46 47 48 49 49 49 49 49 48 47 47 47 47 47 47 47 46 45 44 42 41 40 38 36 35 34 30 27 26 26 26 26 25 25 23 22 22 22 22 22 22 21 20 18 16 17 19 20 20 20 20 19 19 19 18
43 43 44 45 46 47 47 47 47 48 48 48 48 49 48 47 46 47 46 46 46 46 46 46 45 44 42 40 39 38 37 34 32 30 26 25 25 25 25 24 24 25 24 23 23 23 23 22 22 21 20 19 17 16 17 19 20 20 20 19 19 19 18
44 45 46 47 48 48 48 48 48 48 48 48 48 47 46 45 45 45 45 45 45 45 45 44 43 42 41 38 37 36 34 32 30 27 25 24 24 23 22 22 23 24 25 25 24 23 22 22 22 21 21 20 19 17 17 18 19 20 20 19 19 19 18
46 47 48 48 48 48 49 48 48 48 47 47 46 45 44 44 44 44 44 44 43 43 43 42 41 40 39 37 36 34 32 30 28 26 24 23 22 20 19 20 21 23 24 25 24 22 21 21 22 22 21 21 21 20 19 18 18 19 20 19 19 19 18
Wind_Direction
293 294 297 299 301 304 307 310 314 318 319 318 317 315 312 311 312 315 320 324 323 321 320 319 319 319 319 319 319 318 316 313 311 310 308 307 306 304 303 303 303 303 304 304 304 303 301 300 299 297 296 294 293 290 286 283 279 275 270 265 260 258 259
289 290 294 296 299 301 304 307 311 313 314 314 314 313 310 310 313 316 320 322 322 321 321 320 319 319 319 318 318 318 316 314 312 310 308 306 304 303 302 302 302 303 304 304 304 303 302 300 299 298 296 295 294 292 289 285 280 274 269 265 261 257 255
284 286 290 294 297 300 303 305 308 309 310 311 312 310 309 311 315 316 319 321 322 322 322 320 319 318 318 318 318 317 316 315 313 310 309 307 305 304 303 303 304 305 306 306 306 304 302 301 300 298 297 295 294 293 291 288 283 276 269 264 261 258 255
279 284 288 293 296 299 301 302 305 306 307 309 310 308 309 312 314 314 317 320 322 322 322 320 319 319 318 317 317 316 315 314 312 311 310 309 308 307 307 307 308 308 309 309 307 305 303 302 301 298 296 295 294 293 292 289 284 279 272 265 261 259 257
278 283 288 292 295 298 300 301 303 304 306 308 308 307 308 310 312 313 317 320 322 322 321 320 320 319 318 317 316 314 314 313 312 312 312 312 312 311 310 310 311 312 311 309 307 307 305 304 301 298 296 293 292 291 290 288 285 281 276 268 262 258 257
278 283 288 291 294 297 299 300 302 304 305 306 307 307 308 309 310 313 317 320 321 321 320 320 320 319 317 315 314 314 314 314 314 314 315 316 315 313 312 312 313 314 313 310 309 308 307 305 301 298 295 292 290 289 289 288 285 281 278 273 266 259 256
280 285 288 292 294 297 298 300 301 303 304 306 307 307 307 308 310 313 317 320 321 320 320 321 320 318 316 314 313 314 316 316 317 318 318 318 317 315 313 313 314 315 314 313 312 310 308 305 302 298 294 292 291 290 290 289 286 282 278 274 269 263 257
282 287 291 293 295 297 298 299 301 302 303 306 307 306 306 307 310 314 317 320 321 320 320 320 319 317 315 314 314 316 318 319 320 320 320 319 318 315 313 313 315 316 316 315 314 313 310 306 302 299 296 294 294 294 293 291 288 283 277 273 269 264 259
285 290 293 294 295 297 298 299 301 301 304 307 307 305 305 307 311 315 318 320 320 320 319 319 317 316 315 315 317 319 320 320 320 320 320 319 317 315 313 314 316 317 318 319 317 315 313 309 306 304 301 300 299 296 295 294 290 283 276 271 266 262 258
288 291 293 294 296 297 298 300 300 302 306 308 306 305 305 308 312 316 318 319 319 319 318 316 315 315 316 318 319 320 320 320 320 320 320 319 317 315 314 315 316 319 322 322 320 318 316 314 312 310 308 307 305 301 298 296 291 282 276 272 266 260 256
288 289 292 294 296 298 298 299 301 304 308 308 306 305 305 309 314 317 318 318 318 317 316 315 315 316 318 319 320 320 319 319 319 320 320 320 317 315 314 315 317 321 324 324 323 321 318 316 316 315 313 311 310 307 301 295 289 279 273 271 267 259 252
286 289 294 297 298 298 298 300 303 307 308 306 305 304 305 310 315 317 317 317 316 316 315 314 315 317 318 319 319 318 318 319 319 320 321 320 317 315 314 314 318 324 326 325 325 323 320 318 318 318 315 312 311 309 302 293 284 278 276 273 267 258 249
288 294 298 298 298 298 298 300 304 307 306 304 304 304 305 310 316 317 316 316 315 315 314 314 315 317 318 318 317 317 318 319 320 321 321 320 317 316 313 312 316 321 323 324 324 324 323 321 321 322 318 311 309 308 301 290 281 280 283 282 274 261 248
294 297 297 296 296 296 297 300 304 305 303 303 304 303 305 311 316 316 315 315 314 314 314 314 315 316 317 317 317 317 317 318 320 321 322 320 318 316 314 312 313 316 319 320 321 323 324 323 323 325 320 312 307 305 299 290 285 285 284 281 274 259 245
293 293 292 293 294 295 296 299 302 302 301 301 302 303 306 312 315 315 314 313 313 313 313 313 314 315 316 317 317 316 317 318 320 322 322 320 318 317 316 314 315 315 317 317 318 321 324 324 325 325 322 317 310 306 303 296 292 292 285 277 270 256 244
290 290 290 292 294 294 295 299 302 300 299 300 302 304 307 311 313 312 312 311 311 311 311 312 313 315 316 317 316 315 316 318 320 322 322 319 317 318 318 318 318 317 317 316 316 319 322 324 325 325 324 319 312 307 307 304 304 305 292 275 267 256 246
289 289 290 293 294 295 297 301 302 299 299 301 303 304 307 309 310 310 309 310 310 310 310 311 312 315 316 315 314 313 315 318 321 321 320 318 317 318 319 320 320 319 317 316 316 318 320 322 324 324 323 319 311 307 307 308 317 320 301 273 266 259 247
286 288 291 294 296 296 298 300 300 299 300 302 303 304 306 307 308 308 307 308 308 309 309 310 312 314 314 313 312 311 314 318 320 320 318 317 316 318 319 320 320 319 317 316 316 317 318 319 321 322 321 317 309 303 305 309 318 318 299 272 267 264 252
286 289 292 295 297 297 298 298 298 299 301 301 301 302 303 305 306 306 305 306 307 308 309 310 311 312 312 312 310 310 313 317 319 319 318 316 315 316 318 318 318 317 316 315 315 315 316 317 318 319 320 317 309 301 303 309 313 310 297 278 271 271 265
287 290 293 295 296 297 298 297 297 299 299 298 298 299 300 303 305 305 305 306 307 308 309 309 309 310 310 310 310 309 312 316 318 319 318 315 313 314 315 315 315 314 313 313 313 313 314 315 316 317 318 317 313 305 297 300 305 304 299 291 282 279 277
286 289 291 292 294 296 297 296 296 296 295 295 296 297 300 303 305 305 306 307 307 308 308 308 309 309 310 310 310 310 312 315 317 318 318 315 313 313 314 314 312 311 310 310 311 310 311 313 314 317 318 317 317 311 300 297 303 304 303 301 296 290 285
283 285 287 289 293 295 295 293 293 293 293 294 297 298 301 304 305 306 306 306 307 307 308 309 310 310 311 311 310 310 311 314 316 318 318 316 314 315 315 313 311 309 307 308 309 308 310 312 313 316 319 318 319 316 308 305 307 305 302 302 303 300 294
280 282 283 287 290 291 290 291 292 293 295 298 300 301 303 304 305 305 306 306 307 308 309 310 310 311 311 311 310 310 310 312 315 318 318 316 315 316 316 314 312 309 308 307 307 306 309 311 313 316 319 320 320 318 314 313 314 311 304 301 304 306 298
276 277 281 285 288 289 290 291 293 295 298 300 302 304 304 304 304 304 305 307 309 310 311 311 311 311 310 310 310 309 309 311 315 317 317 315 315 316 317 315 312 311 309 307 305 306 308 309 311 314 318 321 322 320 318 317 318 319 313 304 303 307 303
273 277 282 286 288 289 291 293 295 298 300 302 303 304 304 304 304 305 306 309 310 311 311 311 310 310 310 310 310 309 309 311 314 317 316 314 313 315 316 315 312 311 309 306 304 305 307 307 308 312 316 321 323 322 320 319 319 322 321 311 304 307 309
277 280 284 286 288 290 293 295 297 300 301 302 304 305 305 306 306 307 309 310 311 310 310 309 310 310 310 310 310 309 308 310 312 314 315 313 312 314 315 314 311 309 307 303 302 303 305 304 305 309 314 318 323 324 322 320 321 323 324 317 308 308 315
279 281 284 286 289 292 295 297 299 301 302 304 305 305 306 307 307 308 309 309 309 309 309 309 310 310 310 310 309 307 306 307 310 311 312 312 311 311 313 312 309 307 305 302 299 301 303 303 303 307 310 314 320 324 323 322 322 324 325 321 314 312 321
281 284 287 290 292 295 298 300 301 303 304 304 304 304 305 306 307 308 309 309 309 308 308 309 310 311 311 310 308 306 305 306 309 310 310 311 309 309 310 309 306 304 303 301 299 299 300 301 302 304 307 309 314 320 322 323 324 325 326 325 321 318 322
286 290 293 295 296 298 301 302 303 303 303 302 302 302 304 306 307 308 308 308 308 308 309 310 311 312 311 309 307 305 305 306 307 308 309 310 309 308 308 307 304 302 302 302 300 300 300 300 301 302 304 305 307 313 318 321 323 326 326 327 327 326 324
293 295 296 296 298 300 301 302 301 301 300 300 300 302 304 306 307 307 308 308 308 309 310 311 311 311 310 307 305 305 305 305 306 306 308 310 310 307 306 305 301 299 300 301 300 301 302 300 299 300 302 302 303 305 310 315 319 323 326 328 330 332 328
295 295 296 297 298 299 299 299 299 299 299 300 301 303 305 306 307 308 308 309 310 310 310 310 310 309 308 306 305 305 305 305 305 305 307 310 309 305 303 302 299 296 296 297 298 300 302 300 297 297 299 301 300 300 302 306 311 316 322 326 330 333 332
294 295 295 296 296 297 298 298 298 299 300 302 303 305 306 307 308 308 309 310 309 309 309 309 309 308 307 306 305 305 305 305 305 305 306 307 306 301 297 296 294 293 292 292 294 296 297 297 296 296 297 299 300 299 299 300 304 308 313 320 326 331 334
291 292 293 295 297 298 298 299 299 300 302 303 305 305 306 307 308 308 308 308 308 308 308 308 307 306 306 305 305 305 305 304 304 304 304 303 301 296 293 291 289 289 288 287 290 291 292 293 294 295 297 299 299 300 301 300 301 304 306 311 318 324 330
291 293 295 297 298 298 298 299 299 301 303 305 305 305 306 307 307 307 307 307 307 308 307 306 305 305 305 305 305 305 305 303 302 303 302 298 293 289 287 285 284 284 284 282 285 288 289 290 292 293 296 299 300 301 303 303 303 304 305 307 311 316 322
293 296 297 298 298 298 299 299 300 302 303 305 305 305 306 307 307 307 308 308 307 306 305 304 304 304 305 305 304 303 303 302 301 300 296 289 284 282 281 281 281 281 281 280 281 284 286 288 289 290 293 296 298 300 302 305 307 307 307 307 308 311 315
294 296 298 299 300 300 300 300 301 302 303 304 305 305 307 307 307 307 307 306 305 304 304 304 304 304 305 304 302 301 301 301 300 295 286 279 278 278 278 279 280 281 280 279 278 279 283 286 287 287 289 292 294 297 299 303 306 307 309 309 309 309 310
296 298 299 300 301 301 301 301 302 303 303 304 304 305 306 306 305 305 304 304 304 304 304 304 304 305 304 301 299 298 298 299 298 288 275 271 273 275 278 280 281 281 281 281 279 278 279 282 285 285 286 287 290 293 294 297 300 302 305 307 308 308 307
297 297 298 299 300 300 301 301 301 301 302 302 303 304 304 304 304 304 303 304 305 305 305 304 305 305 303 300 299 297 294 294 291 279 266 265 270 275 280 281 280 280 282 284 284 281 276 276 279 281 282 283 285 288 290 291 293 296 299 302 304 305 306